Location: The Dilly Hill Observatory
(31.5262°N, 86.8310°W)
Time: 14:49:57
(UTC-06:00)

ISS - Visible Passes

Search period start: 19 January 2018 00:00
Search period end: 29 January 2018 00:00
Orbit: 402 x 407 km, 51.6° (Epoch: 20 January)

Date Brightness Start Highest point End Pass type
(mag) Time Alt. Az. Time Alt. Az. Time Alt. Az.
19 Jan -0.5 04:23:54 12° ESE 04:23:54 12° ESE 04:24:12 10° ESE visible
20 Jan -1.2 05:07:02 12° S 05:07:02 12° S 05:07:26 10° S visible
21 Jan -1.4 19:09:17 10° SSW 19:10:18 18° SSW 19:10:18 18° SSW visible
22 Jan -2.6 18:17:33 10° S 18:20:15 25° SE 18:20:43 24° ESE visible
23 Jan -2.5 19:01:07 10° WSW 19:03:44 39° WNW 19:03:44 39° WNW visible
24 Jan -3.9 18:08:38 10° SW 18:11:53 81° SE 18:13:59 20° NE visible
25 Jan -1.5 18:53:49 10° W 18:56:07 18° NW 18:56:48 17° NNW visible
26 Jan -2.4 18:00:38 10° WSW 18:03:36 33° NW 18:06:36 10° NNE visible
28 Jan -1.2 17:53:31 10° WNW 17:55:27 15° NW 17:57:23 10° N visible
